Torna al catalogo

COSMOS 252 DEB

AttivoLEO
NORAD 3843·DEBRIS·🇷🇺 Russia

Lanciato Nov 1, 1968 da Baikonur Cosmodrome

Loading…

Prossimi Passaggi (prossime 24 ore)

TLE

AggiornatoSource: Space-Track

Epoca: Sep 13, 2026, 22:06 UTC

1  3843U 68097BG  26256.92083708  .00000881  00000-0  94857-3 0  9999
2  3843  62.2604 235.6162 0689308 128.9147 237.5409 13.04633587678899

Traccia COSMOS 252 DEB in tempo reale con AllMySat

Download on the App Store